sat.trackr.live / text

‹ back to catalog

STARLINK-2609

NORAD 48373 · 2021-038W

PAYLOAD ACTIVE UNKNOWN

§ Identity

Operator
Country
US
Launch date
2021-05-04
Launch site
AFETR
Launch vehicle
Mass (kg)
RCS (m²)

Purposes: comms

External: N2YO · Heavens-Above · Gunter

§ Orbital elements

Epoch: 2026-09-19T02:19:36.582816Z

Period
94.01 min
Inclination
53.1614°
Eccentricity
0.0002349
Mean motion
15.31676089 rev/d
Perigee alt
469.2 km
Apogee alt
472.4 km
Semi-major
6,848.9 km
B*
-8.5241e-5
RAAN
165.4013°
Arg perigee
71.1136°
Mean anomaly
289.0120°
Rev number
29,689

§ Raw data

STARLINK-26091 48373U 21038W   26262.09695119 -.00003008  00000+0 -85241-4 0  99932 48373  53.1614 165.4013 0002349  71.1136 289.0120 15.31676089296896

JSON: /api/v1/satellites/48373 · /tle

For live sub-satellite position, see the globe view (requires WebGL).

§ Visibility from observer

Set your observer location to see the next 7 days of passes ≥ 10°. The values pass through the URL so the page stays shareable.

No JS? Fill the form by hand. The geolocation button needs JavaScript.